Location: D�nning
(49.2479°N, 12.8491°E)
Time: 08:01:16
(UTC+00:00)

Lacrosse 5 rocket - Pass Details

Date: 18 September 2020
Orbit: 460 x 636 km, 57.0° (Epoch: 27 October)

Event Time Altitude Azimuth Distance (km) Brightness Sun altitude
Rises 18:07:28 0° 256° (WSW) 2,729 6.1 -9.4°
Reaches altitude 10° 18:09:43 10° 263° (W) 1,866 5.3 -9.7°
Maximum altitude 18:13:49 46° 337° (NNW) 798 2.4 -10.4°
Drops below altitude 10° 18:18:09 10° 52° (NE) 1,969 3.8 -11.1°
Enters shadow 18:19:30 - 56° (NE) 2,480 4.3 -11.3°
